FW4179 Weather Reports


time (UTC)temp
C
wind
direction
speed
KPH
gust
KPH
rain 1hr
cm
rain 24hr
cm
rain mn
cm
humidity
%
barometer
mb
20260906040115 23 0 0.0 0.0 0.00 0.84 0.84 91 1014.6
20260906034553 23 0 0.0 0.0 0.00 0.84 0.84 91 1015.1
20260906033102 23 0 0.0 0.0 0.00 0.84 0.84 91 1015.0
20260906031607 23 0 0.0 6.4 0.00 0.84 0.84 91 1014.2
20260906030107 23 0 0.0 0.0 0.00 0.84 0.84 92 1014.4
20260906024558 23 0 0.0 0.0 0.00 0.84 0.84 93 1014.5
20260906023122 24 0 0.0 0.0 0.00 0.84 0.84 92 1014.0
20260906021558 24 0 0.0 0.0 0.00 0.84 0.84 91 1013.9
20260906020056 25 0 0.0 0.0 0.00 0.84 0.84 89 1013.5
20260906014623 25 0 0.0 0.0 0.00 0.84 0.84 88 1013.3
20260906013101 25 0 0.0 0.0 0.00 0.84 0.84 88 1013.3
20260906011601 26 0 0.0 0.0 0.00 0.84 0.84 85 1013.0
20260906010057 26 0 0.0 0.0 0.00 0.84 0.84 85 1013.2
20260906004609 26 0 0.0 0.0 0.00 0.84 0.84 83 1013.6
20260906003059 26 0 0.0 0.0 0.00 0.84 0.84 83 1013.6
20260906001553 27 0 0.0 3.2 0.00 0.84 0.84 82 1013.7
20260906000104 27 0 0.0 3.2 0.00 0.84 0.84 81 1013.5
20260905234602 28 0 0.0 0.0 0.00 0.84 0.84 76 1013.1
20260905233059 30 0 0.0 0.0 0.00 0.84 0.84 74 1013.1
20260905231556 30 0 0.0 1.6 0.00 0.84 0.84 74 1013.0
20260905230101 31 0 0.0 0.0 0.00 0.84 0.84 71 1013.0
20260905224607 30 0 0.0 3.2 0.00 0.84 0.84 72 1013.0
20260905223057 30 0 1.6 8.0 0.00 0.84 0.84 74 1013.3
20260905221553 30 197 1.6 12.9 0.00 0.84 0.84 74 1013.4
20260905220111 31 134 1.6 6.4 0.00 0.84 0.84 73 1013.4
20260905214557 30 0 0.0 0.0 0.00 0.84 0.84 75 1013.3
20260905213107 29 153 1.6 9.7 0.00 0.84 0.84 80 1013.5
20260905211557 28 140 1.6 11.3 0.00 0.84 0.84 81 1013.7
20260905210058 28 134 0.0 6.4 0.00 0.84 0.84 83 1013.7
20260905204555 27 0 0.0 1.6 0.00 0.84 0.84 84 1013.8
20260905203102 27 0 1.6 4.8 0.00 0.84 0.84 87 1014.0
20260905201557 27 132 4.8 8.0 0.03 0.84 0.84 87 1014.1
20260905200100 26 0 0.0 0.0 0.84 0.84 0.84 90 1014.0
20260905194554 25 0 0.0 4.8 0.84 0.84 0.84 90 1014.3
20260905193101 25 51 0.0 4.8 0.84 0.84 0.84 89 1014.5
20260905191600 27 26 1.6 29.0 0.79 0.79 0.79 75 1014.9
20260905190103 33 0 0.0 1.6 0.00 0.00 0.00 62 1014.9
20260905184603 34 0 0.0 3.2 0.00 0.00 0.00 62 1014.6
20260905183119 34 355 1.6 11.3 0.00 0.00 0.00 62 1014.9
20260905181604 35 64 0.0 12.9 0.00 0.00 0.00 62 1014.8
20260905180058 34 78 0.0 9.7 0.00 0.00 0.00 65 1015.1
20260905174551 33 108 1.6 8.0 0.00 0.00 0.00 67 1015.2
20260905173056 33 82 0.0 6.4 0.00 0.00 0.00 67 1015.3
20260905171604 33 329 1.6 8.0 0.00 0.00 0.00 68 1015.6
20260905170058 33 0 0.0 4.8 0.00 0.00 0.00 66 1015.8
20260905164606 32 98 0.0 0.0 0.00 0.00 0.00 68 1015.9
20260905163101 32 0 0.0 6.4 0.00 0.00 0.00 69 1016.3
20260905161558 31 0 0.0 4.8 0.00 0.00 0.00 73 1016.3
20260905160111 30 0 0.0 4.8 0.00 0.00 0.00 73 1016.3
20260905154602 30 0 0.0 4.8 0.00 0.00 0.00 77 1016.3
20260905153058 30 286 1.6 4.8 0.00 0.00 0.00 77 1016.4
20260905151600 29 0 0.0 0.0 0.00 0.00 0.00 78 1016.3
20260905150054 28 279 1.6 6.4 0.00 0.00 0.00 79 1016.3
20260905144558 27 0 0.0 0.0 0.00 0.00 0.00 85 1016.5
20260905143100 26 0 0.0 0.0 0.00 0.00 0.00 88 1016.6
20260905141559 25 0 0.0 0.0 0.00 0.00 0.00 90 1016.6
20260905140107 24 0 0.0 0.0 0.00 0.00 0.00 95 1016.6
20260905134552 23 0 0.0 0.0 0.00 0.00 0.00 96 1016.7
20260905133106 23 0 0.0 0.0 0.00 0.00 0.00 97 1016.6
20260905131607 23 0 0.0 0.0 0.00 0.00 0.00 97 1016.7
20260905130058 22 0 0.0 0.0 0.00 0.00 0.00 98 1017.0
20260905124559 22 0 0.0 0.0 0.00 0.00 0.00 98 1017.0
20260905123050 22 0 0.0 0.0 0.00 0.00 0.00 99 1016.8
20260905121557 22 0 0.0 0.0 0.00 0.00 0.00 99 1016.6
20260905120108 22 0 0.0 0.0 0.00 0.00 0.00 99 1016.5
20260905114601 22 0 0.0 0.0 0.00 0.00 0.00 99 1016.3
20260905113052 22 0 0.0 0.0 0.00 0.00 0.00 99 1016.1
20260905111610 21 0 0.0 0.0 0.00 0.00 0.00 99 1016.0
20260905110100 21 0 0.0 0.0 0.00 0.00 0.00 99 1015.8
20260905104558 21 0 0.0 0.0 0.00 0.00 0.00 99 1015.7
20260905103059 21 0 0.0 0.0 0.00 0.00 0.00 98 1015.6
20260905101605 22 0 0.0 0.0 0.00 0.00 0.00 98 1015.5
20260905100100 22 0 0.0 0.0 0.00 0.00 0.00 98 1015.4
20260905094552 22 0 0.0 0.0 0.00 0.00 0.00 98 1015.2
20260905093058 22 0 0.0 0.0 0.00 0.00 0.00 98 1015.0
20260905091555 22 0 0.0 0.0 0.00 0.00 0.00 98 1015.0
20260905084611 22 0 0.0 0.0 0.00 0.00 0.00 98 1015.2
20260905083052 22 0 0.0 0.0 0.00 0.00 0.00 98 1015.3
20260905081555 22 0 0.0 0.0 0.00 0.00 0.00 98 1015.4
20260905080059 23 0 0.0 0.0 0.00 0.00 0.00 97 1015.4
20260905074559 23 0 0.0 0.0 0.00 0.00 0.00 96 1015.5
20260905073102 23 0 0.0 0.0 0.00 0.00 0.00 95 1015.5
20260905071557 23 0 0.0 0.0 0.00 0.00 0.00 96 1015.5
20260905070105 23 0 0.0 0.0 0.00 0.00 0.00 95 1015.5
20260905064555 23 0 0.0 0.0 0.00 0.00 0.00 96 1015.6
20260905063055 23 0 0.0 0.0 0.00 0.00 0.00 96 1015.7
20260905061556 23 0 0.0 0.0 0.00 0.00 0.00 95 1016.0
20260905060054 23 0 0.0 0.0 0.00 0.00 0.00 95 1016.0
20260905054555 23 0 0.0 0.0 0.00 0.00 0.00 94 1015.9
20260905053140 23 0 0.0 0.0 0.00 0.00 0.00 92 1015.9
20260905051555 24 0 0.0 0.0 0.00 0.00 0.00 92 1016.0
20260905050051 24 0 0.0 0.0 0.00 0.00 0.00 92 1016.0
20260905044601 25 0 0.0 0.0 0.00 0.00 0.00 92 1015.9
20260905043058 25 0 0.0 0.0 0.00 0.00 0.00 91 1016.0
20260905041556 25 0 0.0 0.0 0.00 0.00 0.00 90 1016.2